Stations météo

Publicité
Istres, France (7647): Température de l'air & dewpoint: 18.01.2021 06:00:00 - 24.01.2021 06:00:00 (CET)Istres, France (7647): Température de l'air 5cm: 18.01.2021 06:00:00 - 24.01.2021 06:00:00 (CET)Istres, France (7647): Vitesse du vent & gusts: 18.01.2021 06:00:00 - 24.01.2021 06:00:00 (CET)Istres, France (7647): Direction du vent: 18.01.2021 06:00:00 - 24.01.2021 06:00:00 (CET)Istres, France (7647): reduced air pressure: 18.01.2021 06:00:00 - 24.01.2021 06:00:00 (CET)Istres, France (7647): visibility: 18.01.2021 06:00:00 - 24.01.2021 06:00:00 (CET)Istres, France (7647): Quantités de précipitations: 18.01.2021 06:00:00 - 24.01.2021 06:00:00 (CET)
Date & Time tt [°C] td [°C] tt 5cm [°C] ff [km/h] ff [knt] fx [km/h] fx [knt] dd ppp [hPa] vv [km] rr [mm]
24.01.2021 06:00:00 5,7 5,0 5,3 18 10 23 12 NNW 998,7 57 0,4
24.01.2021 05:00:00 5,7 4,7 5,4 16 9 29 16 N 998,8 10 0,8
24.01.2021 04:00:00 6,0 5,1 5,7 18 10 24 13 NNE 998,7 13 0,6
24.01.2021 03:00:00 6,3 5,4 5,8 14 8 21 11 NNE 999,0 40 0,0
24.01.2021 02:00:00 6,3 5,3 5,8 9 5 14 8 W 999,4 18 0,8
24.01.2021 01:00:00 7,1 4,9 6,0 8 4 11 6 NW 1000,2 16 0,2
24.01.2021 00:00:00 7,6 4,2 6,3 8 4 23 13 S 1000,5 28 0,0
23.01.2021 23:00:00 7,3 3,5 6,4 4 2 7 4 SSE 1000,4 60 0,0
23.01.2021 22:00:00 7,9 3,4 6,9 2 1 25 14 W 1000,8 49 0,0
23.01.2021 21:00:00 8,9 2,9 8,6 21 12 31 17 WNW 1001,3 60 0,0
23.01.2021 20:00:00 9,6 3,1 8,0 25 13 36 19 W 1001,9 60 0,0
23.01.2021 19:00:00 9,6 4,0 8,5 18 10 27 15 W 1001,6 60 0,0
23.01.2021 18:00:00 10,6 5,1 10,0 14 8 22 12 W 1002,1 60 0,0
23.01.2021 17:00:00 11,3 7,0 10,0 15 8 28 15 SW 1001,8 60 0,0
23.01.2021 16:00:00 11,3 6,0 10,0 21 11 34 18 WSW 1002,1 48 0,0
23.01.2021 15:00:00 12,0 7,1 11,1 24 13 36 19 SW 1002,3 36 0,0
23.01.2021 14:00:00 12,4 6,2 13,9 19 11 32 17 SW 1003,0 56 0,0
23.01.2021 13:00:00 11,6 5,0 12,3 14 8 30 16 SW 1004,3 53 0,0
23.01.2021 12:00:00 11,0 4,0 12,3 16 9 26 14 W 1005,0 54 0,0
23.01.2021 11:00:00 9,6 3,8 10,1 7 4 17 9 WNW 1005,6 57 0,0
23.01.2021 10:00:00 8,1 4,1 8,3 9 5 18 10 WNW 1005,7 59 0,0
23.01.2021 09:00:00 5,2 2,2 2,5 10 5 26 14 NW 1005,6 59 0,0
23.01.2021 08:00:00 3,4 1,3 1,0 21 11 27 14 W 1005,6 60 0,0
23.01.2021 07:00:00 1,7 -0,2 0,9 18 10 21 12 WNW 1005,5 60 0,0
23.01.2021 06:00:00 2,3 0,2 0,2 16 9 21 11 WNW 1005,7 60 0,0
23.01.2021 05:00:00 2,9 0,3 0,8 17 9 22 12 NW 1005,5 60 0,0
23.01.2021 04:00:00 2,4 -0,5 0,9 14 7 19 10 WNW 1005,5 60 0,0
23.01.2021 03:00:00 3,3 0,0 2,0 16 8 25 14 NW 1005,4 60 0,0
23.01.2021 02:00:00 4,5 -0,1 3,3 21 11 39 21 NW 1004,6 60 0,0
23.01.2021 01:00:00 5,5 0,3 4,6 17 9 35 19 NW 1004,0 60 0,0
23.01.2021 00:00:00 6,6 0,1 5,5 26 14 48 26 NW 1003,7 60 0,0
22.01.2021 23:00:00 6,9 0,1 6,0 32 18 43 23 WNW 1002,7 55 0,0
22.01.2021 22:00:00 7,4 1,5 6,3 27 14 61 33 WNW 1001,2 60 0,0
22.01.2021 21:00:00 8,9 2,0 8,0 39 21 80 43 NW 999,7 60 0,0
22.01.2021 20:00:00 10,3 3,8 8,3 48 26 69 38 WNW 997,2 60 0,0
22.01.2021 19:00:00 9,8 6,1 8,5 32 17 46 25 WNW 995,2 60 0,2
22.01.2021 18:00:00 9,6 7,7 8,7 25 14 41 22 W 994,2 20 0,6
22.01.2021 17:00:00 9,7 7,6 8,7 26 14 42 23 W 993,8 15 0,6
22.01.2021 16:00:00 9,8 7,6 8,9 26 14 43 23 W 993,5 15 0,4
22.01.2021 15:00:00 10,9 9,5 10,5 30 16 50 27 W 992,0 15 0,2
22.01.2021 14:00:00 12,7 10,2 13,1 31 17 44 24 W 992,3 18 0,0
22.01.2021 13:00:00 13,0 11,7 - 22 12 48 26 S 993,6 8 -
22.01.2021 12:00:00 14,2 11,5 13,3 33 18 57 31 SSE 995,3 11 0,0
22.01.2021 11:00:00 14,2 11,4 13,6 39 21 66 36 SSE 996,9 14 0,0
22.01.2021 10:00:00 13,5 10,5 11,4 34 19 47 26 SE 997,3 15 0,0
22.01.2021 09:00:00 11,6 9,8 10,3 27 15 39 21 ESE 997,7 14 0,0
22.01.2021 08:00:00 11,0 9,1 10,5 24 13 42 23 ESE 999,2 17 0,0
22.01.2021 07:00:00 11,3 9,0 10,1 24 13 36 19 ESE 1000,0 20 0,0
22.01.2021 06:00:00 10,6 8,5 9,8 23 12 37 20 E 1001,4 32 0,0
22.01.2021 05:00:00 11,1 8,8 10,0 27 15 39 21 E 1002,2 19 0,0
22.01.2021 04:00:00 10,9 9,0 10,3 21 12 32 18 ESE 1003,4 16 0,0
22.01.2021 03:00:00 11,3 9,4 9,5 19 10 31 17 ESE 1004,6 16 0,0
22.01.2021 02:00:00 10,5 9,3 9,7 19 11 29 15 E 1004,9 13 0,0
22.01.2021 01:00:00 10,7 9,3 9,9 16 9 28 15 ESE 1005,4 12 0,0
22.01.2021 00:00:00 11,1 9,4 10,4 19 10 35 19 ESE 1006,3 13 0,0
21.01.2021 23:00:00 11,6 9,7 10,9 20 11 29 16 ESE 1006,2 14 0,0
21.01.2021 22:00:00 12,3 10,4 11,3 17 9 35 19 ESE 1006,9 16 0,0
21.01.2021 21:00:00 13,1 10,3 12,5 22 12 43 23 SE 1007,3 18 0,0
21.01.2021 20:00:00 13,4 10,6 12,9 27 15 41 22 SE 1007,3 19 0,0
21.01.2021 19:00:00 13,3 10,3 12,7 27 15 45 24 SSE 1008,0 19 0,0
21.01.2021 18:00:00 13,1 10,1 12,7 31 17 48 26 SE 1007,1 19 0,0
21.01.2021 17:00:00 13,3 10,3 13,2 31 17 54 29 SSE 1007,6 18 0,0
21.01.2021 16:00:00 13,6 10,6 13,6 32 18 51 28 SSE 1007,5 19 0,0
21.01.2021 15:00:00 14,1 10,3 14,1 29 16 48 26 SE 1007,9 17 0,0
21.01.2021 14:00:00 13,7 10,5 14,0 26 14 39 21 SE 1008,7 19 0,0
21.01.2021 13:00:00 13,4 10,2 14,1 26 14 42 23 ESE 1009,5 18 0,0
21.01.2021 12:00:00 13,0 10,0 12,8 21 12 31 17 ESE 1010,5 19 0,0
21.01.2021 11:00:00 12,4 9,8 11,7 17 9 34 18 ESE 1011,1 19 0,0
21.01.2021 10:00:00 11,3 8,7 10,7 24 13 35 19 E 1010,4 46 0,0
21.01.2021 09:00:00 10,5 8,4 10,1 16 8 29 16 E 1010,3 46 0,0
21.01.2021 08:00:00 10,1 8,4 9,2 16 9 31 17 E 1009,9 31 0,0
21.01.2021 07:00:00 10,0 8,4 9,7 20 11 32 17 E 1009,0 26 0,0
21.01.2021 06:00:00 10,6 9,0 10,2 16 9 36 19 E 1008,7 15 0,0
21.01.2021 05:00:00 12,3 10,4 11,5 21 12 38 21 SE 1009,0 14 0,0
21.01.2021 04:00:00 12,5 10,0 11,9 18 10 41 22 SE 1009,2 18 0,0
21.01.2021 03:00:00 12,3 10,4 11,4 27 14 50 27 SE 1008,9 17 0,0
21.01.2021 02:00:00 12,3 10,2 11,4 28 15 47 26 SE 1008,8 15 0,0
21.01.2021 01:00:00 12,1 9,8 10,9 27 15 50 27 SE 1009,2 19 0,0
21.01.2021 00:00:00 12,3 9,3 11,9 36 20 55 30 SSE 1009,8 18 0,0
20.01.2021 23:00:00 12,5 10,4 10,7 36 19 74 40 SE 1009,2 17 0,6
20.01.2021 22:00:00 12,5 9,1 10,4 44 24 68 37 SE 1009,2 14 0,2
20.01.2021 21:00:00 12,0 7,5 11,7 39 21 68 37 ESE 1010,0 48 0,0
20.01.2021 20:00:00 12,3 8,0 11,7 45 25 69 37 SE 1011,0 42 0,0
20.01.2021 19:00:00 12,5 8,4 12,0 42 23 66 36 SE 1011,6 39 0,0
20.01.2021 18:00:00 12,8 8,9 12,5 42 23 67 36 SE 1012,4 38 0,0
20.01.2021 17:00:00 13,0 8,7 12,9 34 18 63 34 SE 1012,9 46 0,0
20.01.2021 16:00:00 13,0 8,3 13,1 39 21 66 35 SE 1012,8 46 0,0
20.01.2021 15:00:00 13,4 7,8 13,7 40 22 68 37 SE 1013,5 39 0,0
20.01.2021 14:00:00 13,6 8,0 13,2 39 21 69 38 SE 1014,2 20 0,0
20.01.2021 13:00:00 13,9 8,7 14,1 39 21 62 33 SSE 1015,5 20 0,0
20.01.2021 12:00:00 13,5 8,5 13,3 37 20 61 33 SSE 1016,4 42 0,0
20.01.2021 11:00:00 13,0 8,5 12,8 36 19 54 29 SE 1016,9 46 0,0
20.01.2021 10:00:00 12,8 8,5 12,1 34 18 53 29 SE 1016,9 20 0,0
20.01.2021 09:00:00 12,3 7,8 10,1 29 16 46 25 SSE 1017,0 48 0,0
20.01.2021 08:00:00 12,0 8,1 11,5 23 12 35 19 SE 1017,2 46 0,0
20.01.2021 07:00:00 12,1 8,9 11,5 23 12 48 26 SE 1017,4 19 0,0
20.01.2021 06:00:00 12,0 7,7 11,2 34 18 48 26 SSE 1017,4 51 0,0
20.01.2021 05:00:00 11,7 8,4 10,2 27 15 41 22 SSE 1017,7 20 0,0
20.01.2021 04:00:00 11,4 9,5 10,4 16 9 29 15 SE 1018,4 17 0,0
20.01.2021 03:00:00 11,0 8,7 10,0 17 9 25 13 SE 1018,7 18 0,0
20.01.2021 02:00:00 11,2 9,1 9,5 18 10 26 14 SE 1019,0 16 0,0
20.01.2021 01:00:00 11,0 8,9 9,4 16 9 25 14 SSE 1019,8 16 0,0
20.01.2021 00:00:00 9,9 8,2 8,7 13 7 25 13 ESE 1020,4 17 0,0
19.01.2021 23:00:00 8,8 6,8 8,3 13 7 23 13 E 1020,9 16 0,0
19.01.2021 22:00:00 8,5 5,8 6,8 18 10 30 16 E 1021,1 17 0,0
19.01.2021 21:00:00 7,2 4,2 5,5 15 8 23 12 E 1021,4 17 0,0
19.01.2021 20:00:00 6,3 1,6 2,9 13 7 16 9 E 1021,9 18 0,0
19.01.2021 19:00:00 6,0 0,1 2,9 8 5 21 11 E 1022,0 11 0,0
19.01.2021 18:00:00 7,7 0,9 5,9 7 4 13 7 ESE 1022,2 20 0,0
19.01.2021 17:00:00 9,2 0,9 8,8 9 5 20 11 E 1022,3 38 0,0
19.01.2021 16:00:00 11,5 0,6 12,5 10 5 19 11 SSE 1022,6 51 0,0
19.01.2021 15:00:00 12,3 -0,9 16,6 6 4 13 7 SE 1022,6 41 0,0
19.01.2021 14:00:00 12,2 -1,0 15,8 4 2 15 8 W 1023,4 18 0,0
19.01.2021 13:00:00 10,7 0,4 13,5 6 3 13 7 ESE 1024,2 26 0,0
19.01.2021 12:00:00 8,6 -0,5 11,8 6 3 14 7 ESE 1025,3 31 0,0
19.01.2021 11:00:00 6,5 -1,2 10,1 4 2 11 6 NE 1025,7 37 0,0
19.01.2021 10:00:00 4,9 -1,8 4,0 0 0 6 3 N 1025,6 23 0,0
19.01.2021 09:00:00 -0,1 -3,7 -2,8 5 3 17 9 NNE 1025,3 20 0,0
19.01.2021 08:00:00 -2,0 -4,5 -3,0 13 7 18 10 NE 1025,2 34 0,0
19.01.2021 07:00:00 -1,4 -4,1 -2,4 13 7 24 13 NE 1025,3 49 0,0
19.01.2021 06:00:00 -1,2 -3,9 -2,3 17 9 21 12 NNE 1025,4 42 0,0
19.01.2021 05:00:00 -1,1 -3,3 -2,9 13 7 15 8 NNW 1025,5 32 0,0
19.01.2021 04:00:00 -0,9 -3,1 -1,7 14 8 21 11 NNE 1025,4 33 0,0
19.01.2021 03:00:00 -0,2 -2,7 -2,7 13 7 20 11 NNE 1025,8 38 0,0
19.01.2021 02:00:00 -0,7 -3,6 -2,7 11 6 18 10 NNE 1026,0 45 0,0
19.01.2021 01:00:00 -0,2 -2,9 -2,3 13 7 19 10 NE 1026,2 52 0,0
19.01.2021 00:00:00 0,3 -2,9 -2,7 6 3 12 7 NNE 1026,4 60 0,0
18.01.2021 23:00:00 1,3 -2,8 -0,3 13 7 20 11 N 1026,5 60 0,0
18.01.2021 22:00:00 3,0 -2,5 -0,1 8 4 25 13 NNW 1026,2 60 0,0
18.01.2021 21:00:00 5,1 -2,0 3,8 11 6 31 17 N 1026,0 60 0,0
18.01.2021 20:00:00 6,0 -1,9 5,1 21 11 34 18 N 1025,9 58 0,0
18.01.2021 19:00:00 6,7 -1,5 5,5 11 6 40 22 N 1025,7 60 0,0
18.01.2021 18:00:00 7,2 -1,2 6,4 27 15 38 20 N 1025,1 60 0,0
18.01.2021 17:00:00 8,7 -1,4 8,8 22 12 51 28 NNW 1025,2 26 0,0
18.01.2021 16:00:00 9,9 -0,9 10,4 35 19 54 29 NNW 1024,6 22 0,0
18.01.2021 15:00:00 10,3 -1,1 12,2 46 25 66 36 NNW 1023,8 22 0,0
18.01.2021 14:00:00 10,2 -0,9 12,4 45 25 68 37 N 1024,4 28 0,0
18.01.2021 13:00:00 9,9 -0,6 12,3 41 22 59 32 N 1024,9 27 0,0
18.01.2021 12:00:00 9,3 -0,3 11,2 27 15 55 30 N 1025,5 25 0,0
18.01.2021 11:00:00 8,3 -0,2 9,6 37 20 68 37 N 1025,7 20 0,0
18.01.2021 10:00:00 7,4 -0,6 7,1 45 25 66 36 N 1024,9 29 0,0
18.01.2021 09:00:00 6,1 -0,4 4,9 47 26 69 37 NNW 1024,5 19 0,0
18.01.2021 08:00:00 5,5 -0,6 4,7 48 26 66 35 N 1023,7 60 0,0
18.01.2021 07:00:00 5,3 -0,8 4,6 42 23 68 37 NNW 1023,9 48 0,0
18.01.2021 06:00:00 5,3 -0,5 4,5 47 25 70 38 NNW 1024,0 60 0,0

tt = Température de l'air
td = dewpoint
tt 5cm = Température de l'air 5cm
ff = Vitesse du vent
fx = gusts
dd = Direction du vent
ppp = reduced air pressure
vv = visibility
rr = Quantités de précipitations

stations d'obs. à proximité